Time,TemperatureF,DewpointF,PressureIn,WindDirection,WindDirectionDegrees,WindSpeedMPH,WindSpeedGustMPH,Humidity,HourlyPrecipIn,Conditions,Clouds,dailyrainin,SoftwareType,DateUTC
2013-02-26 11:02:00,-999.0,-99.9,-100.00,NNE,33,13.0,-999.0,-999,-99.99,,,-99.99,,2013-02-26 18:02:00,
2013-02-26 11:13:00,-999.0,-99.9,-100.00,North,0,16.0,-999.0,-999,-99.99,,,-99.99,,2013-02-26 18:13:00,
2013-02-26 11:22:00,-999.0,-99.9,-100.00,North,0,16.0,-999.0,-999,-99.99,,,-99.99,,2013-02-26 18:22:00,
2013-02-26 11:32:00,-999.0,-99.9,-100.00,NNE,16,18.0,-999.0,-999,-99.99,,,-99.99,,2013-02-26 18:32:00,
2013-02-26 11:42:00,-999.0,-99.9,-100.00,NNE,16,18.0,-999.0,-999,-99.99,,,-99.99,,2013-02-26 18:42:00,
2013-02-26 11:53:00,-999.0,-99.9,-100.00,NNE,16,13.0,-999.0,-999,-99.99,,,-99.99,,2013-02-26 18:53:00,
2013-02-26 12:02:00,-999.0,-99.9,-100.00,NNE,33,12.0,-999.0,-999,-99.99,,,-99.99,,2013-02-26 19:02:00,
2013-02-26 12:11:00,-999.0,-99.9,-100.00,North,5,14.0,-999.0,-999,-99.99,,,-99.99,,2013-02-26 19:11:00,
2013-02-26 12:22:00,-999.0,-99.9,-100.00,North,11,15.0,-999.0,-999,-99.99,,,-99.99,,2013-02-26 19:22:00,
2013-02-26 12:32:00,-999.0,-99.9,-100.00,NNE,22,14.0,-999.0,-999,-99.99,,,-99.99,,2013-02-26 19:32:00,
2013-02-26 12:42:00,-999.0,-99.9,-100.00,NNE,28,13.0,-999.0,-999,-99.99,,,-99.99,,2013-02-26 19:42:00,
2013-02-26 12:52:00,-999.0,-99.9,-100.00,NNW,337,12.0,-999.0,-999,-99.99,,,-99.99,,2013-02-26 19:52:00,
2013-02-26 13:01:00,-999.0,-99.9,-100.00,NNW,337,12.0,-999.0,-999,-99.99,,,-99.99,,2013-02-26 20:01:00,
2013-02-26 13:11:00,-999.0,-99.9,-100.00,North,5,15.0,-999.0,-999,-99.99,,,-99.99,,2013-02-26 20:11:00,
2013-02-26 13:22:00,-999.0,-99.9,-100.00,NNW,331,13.0,-999.0,-999,-99.99,,,-99.99,,2013-02-26 20:22:00,
2013-02-26 13:32:00,-999.0,-99.9,-100.00,NNW,331,13.0,-999.0,-999,-99.99,,,-99.99,,2013-02-26 20:32:00,
2013-02-26 13:42:00,-999.0,-99.9,-100.00,NNW,331,13.0,-999.0,-999,-99.99,,,-99.99,,2013-02-26 20:42:00,
2013-02-26 13:52:00,-999.0,-99.9,-100.00,NNW,331,13.0,-999.0,-999,-99.99,,,-99.99,,2013-02-26 20:52:00,
2013-02-26 14:21:00,-999.0,-99.9,-100.00,North,0,14.0,-999.0,-999,-99.99,,,-99.99,,2013-02-26 21:21:00,
2013-02-26 14:31:00,-999.0,-99.9,-100.00,North,0,14.0,-999.0,-999,-99.99,,,-99.99,,2013-02-26 21:31:00,
2013-02-26 14:41:00,-999.0,-99.9,-100.00,North,0,14.0,-999.0,-999,-99.99,,,-99.99,,2013-02-26 21:41:00,
2013-02-26 14:51:00,-999.0,-99.9,-100.00,North,5,16.0,-999.0,-999,-99.99,,,-99.99,,2013-02-26 21:51:00,
2013-02-26 15:01:00,-999.0,-99.9,-100.00,NNE,22,16.0,-999.0,-999,-99.99,,,-99.99,,2013-02-26 22:01:00,
2013-02-26 15:11:00,-999.0,-99.9,-100.00,NNE,16,15.0,-999.0,-999,-99.99,,,-99.99,,2013-02-26 22:11:00,
2013-02-26 15:21:00,-999.0,-99.9,-100.00,North,0,13.0,-999.0,-999,-99.99,,,-99.99,,2013-02-26 22:21:00,
2013-02-26 15:32:00,-999.0,-99.9,-100.00,North,0,12.0,-999.0,-999,-99.99,,,-99.99,,2013-02-26 22:32:00,
2013-02-26 15:42:00,-999.0,-99.9,-100.00,NNE,22,13.0,-999.0,-999,-99.99,,,-99.99,,2013-02-26 22:42:00,
2013-02-26 15:52:00,-999.0,-99.9,-100.00,NNE,22,13.0,-999.0,-999,-99.99,,,-99.99,,2013-02-26 22:52:00,
2013-02-26 16:01:00,-999.0,-99.9,-100.00,NW,326,15.0,-999.0,-999,-99.99,,,-99.99,,2013-02-26 23:01:00,
2013-02-26 16:11:00,-999.0,-99.9,-100.00,NNW,348,12.0,-999.0,-999,-99.99,,,-99.99,,2013-02-26 23:11:00,
2013-02-26 16:21:00,-999.0,-99.9,-100.00,NW,326,15.0,-999.0,-999,-99.99,,,-99.99,,2013-02-26 23:21:00,
2013-02-26 16:32:00,-999.0,-99.9,-100.00,NNW,337,13.0,-999.0,-999,-99.99,,,-99.99,,2013-02-26 23:32:00,
2013-02-26 16:42:00,-999.0,-99.9,-100.00,NNW,337,13.0,-999.0,-999,-99.99,,,-99.99,,2013-02-26 23:42:00,
2013-02-26 16:52:00,-999.0,-99.9,-100.00,NNW,337,13.0,-999.0,-999,-99.99,,,-99.99,,2013-02-26 23:52:00,
2013-02-26 17:02:00,-999.0,-99.9,-100.00,NNW,348,12.0,-999.0,-999,-99.99,,,-99.99,,2013-02-27 00:02:00,
2013-02-26 17:11:00,-999.0,-99.9,-100.00,NNW,343,12.0,-999.0,-999,-99.99,,,-99.99,,2013-02-27 00:11:00,
2013-02-26 17:22:00,-999.0,-99.9,-100.00,NNW,343,12.0,-999.0,-999,-99.99,,,-99.99,,2013-02-27 00:22:00,
2013-02-26 17:32:00,-999.0,-99.9,-100.00,NW,315,13.0,-999.0,-999,-99.99,,,-99.99,,2013-02-27 00:32:00,
2013-02-26 17:42:00,-999.0,-99.9,-100.00,NW,326,11.0,-999.0,-999,-99.99,,,-99.99,,2013-02-27 00:42:00,
2013-02-26 17:52:00,-999.0,-99.9,-100.00,NNW,331,11.0,-999.0,-999,-99.99,,,-99.99,,2013-02-27 00:52:00,
2013-02-26 18:01:00,-999.0,-99.9,-100.00,NW,326,12.0,-999.0,-999,-99.99,,,-99.99,,2013-02-27 01:01:00,
2013-02-26 18:11:00,-999.0,-99.9,-100.00,NNW,343,10.0,-999.0,-999,-99.99,,,-99.99,,2013-02-27 01:11:00,
2013-02-26 18:22:00,-999.0,-99.9,-100.00,NNW,343,9.0,-999.0,-999,-99.99,,,-99.99,,2013-02-27 01:22:00,
2013-02-26 18:32:00,-999.0,-99.9,-100.00,NNW,348,11.0,-999.0,-999,-99.99,,,-99.99,,2013-02-27 01:32:00,
2013-02-26 18:42:00,-999.0,-99.9,-100.00,NNW,348,9.0,-999.0,-999,-99.99,,,-99.99,,2013-02-27 01:42:00,
2013-02-26 18:52:00,-999.0,-99.9,-100.00,North,0,10.0,-999.0,-999,-99.99,,,-99.99,,2013-02-27 01:52:00,
2013-02-26 19:02:00,-999.0,-99.9,-100.00,NNW,343,9.0,-999.0,-999,-99.99,,,-99.99,,2013-02-27 02:02:00,
2013-02-26 19:16:00,-999.0,-99.9,-100.00,NNE,16,6.0,-999.0,-999,-99.99,,,-99.99,,2013-02-27 02:16:00,
2013-02-26 19:42:00,-999.0,-99.9,-100.00,NNW,348,7.0,-999.0,-999,-99.99,,,-99.99,,2013-02-27 02:42:00,
2013-02-26 19:52:00,-999.0,-99.9,-100.00,NNW,348,7.0,-999.0,-999,-99.99,,,-99.99,,2013-02-27 02:52:00,
2013-02-26 20:02:00,-999.0,-99.9,-100.00,NNW,348,5.0,-999.0,-999,-99.99,,,-99.99,,2013-02-27 03:02:00,
2013-02-26 20:12:00,-999.0,-99.9,-100.00,NW,326,7.0,-999.0,-999,-99.99,,,-99.99,,2013-02-27 03:12:00,
2013-02-26 20:22:00,-999.0,-99.9,-100.00,NNE,28,6.0,-999.0,-999,-99.99,,,-99.99,,2013-02-27 03:22:00,
2013-02-26 20:32:00,-999.0,-99.9,-100.00,NNW,343,6.0,-999.0,-999,-99.99,,,-99.99,,2013-02-27 03:32:00,
2013-02-26 20:42:00,-999.0,-99.9,-100.00,NNW,337,7.0,-999.0,-999,-99.99,,,-99.99,,2013-02-27 03:42:00,
2013-02-26 20:52:00,-999.0,-99.9,-100.00,NNW,337,7.0,-999.0,-999,-99.99,,,-99.99,,2013-02-27 03:52:00,
2013-02-26 21:02:00,-999.0,-99.9,-100.00,NNW,348,6.0,-999.0,-999,-99.99,,,-99.99,,2013-02-27 04:02:00,
2013-02-26 21:12:00,-999.0,-99.9,-100.00,North,354,6.0,-999.0,-999,-99.99,,,-99.99,,2013-02-27 04:12:00,
2013-02-26 21:22:00,-999.0,-99.9,-100.00,North,354,8.0,-999.0,-999,-99.99,,,-99.99,,2013-02-27 04:22:00,
2013-02-26 21:32:00,-999.0,-99.9,-100.00,North,354,6.0,-999.0,-999,-99.99,,,-99.99,,2013-02-27 04:32:00,
2013-02-26 21:42:00,-999.0,-99.9,-100.00,NNW,348,7.0,-999.0,-999,-99.99,,,-99.99,,2013-02-27 04:42:00,
2013-02-26 21:52:00,-999.0,-99.9,-100.00,North,354,6.0,-999.0,-999,-99.99,,,-99.99,,2013-02-27 04:52:00,
2013-02-26 22:02:00,-999.0,-99.9,-100.00,NNW,337,8.0,-999.0,-999,-99.99,,,-99.99,,2013-02-27 05:02:00,
2013-02-26 22:12:00,-999.0,-99.9,-100.00,North,0,8.0,-999.0,-999,-99.99,,,-99.99,,2013-02-27 05:12:00,
2013-02-26 22:22:00,-999.0,-99.9,-100.00,North,0,8.0,-999.0,-999,-99.99,,,-99.99,,2013-02-27 05:22:00,
2013-02-26 22:32:00,-999.0,-99.9,-100.00,North,0,6.0,-999.0,-999,-99.99,,,-99.99,,2013-02-27 05:32:00,
2013-02-26 22:42:00,-999.0,-99.9,-100.00,NNW,348,6.0,-999.0,-999,-99.99,,,-99.99,,2013-02-27 05:42:00,
2013-02-26 22:52:00,-999.0,-99.9,-100.00,NW,309,6.0,-999.0,-999,-99.99,,,-99.99,,2013-02-27 05:52:00,
2013-02-26 23:02:00,-999.0,-99.9,-100.00,NW,326,6.0,-999.0,-999,-99.99,,,-99.99,,2013-02-27 06:02:00,
2013-02-26 23:11:00,-999.0,-99.9,-100.00,NNW,343,6.0,-999.0,-999,-99.99,,,-99.99,,2013-02-27 06:11:00,
2013-02-26 23:22:00,-999.0,-99.9,-100.00,NNW,343,6.0,-999.0,-999,-99.99,,,-99.99,,2013-02-27 06:22:00,
2013-02-26 23:33:00,-999.0,-99.9,-100.00,NNW,331,6.0,-999.0,-999,-99.99,,,-99.99,,2013-02-27 06:33:00,
2013-02-26 23:42:00,-999.0,-99.9,-100.00,NNW,343,7.0,-999.0,-999,-99.99,,,-99.99,,2013-02-27 06:42:00,
2013-02-26 23:52:00,-999.0,-99.9,-100.00,NNE,16,7.0,-999.0,-999,-99.99,,,-99.99,,2013-02-27 06:52:00,